[[{"header":{"parameterUnit":"m.s-1","parameterCategory":1,"la1":30.2991,"la2":30.254,"lo1":-89.0895,"lo2":-89.0444,"dy":0.0017,"dx":0.0017,"nx":28,"ny":28,"refTime":"2023-07-21T21:00:00:Z","depth":0,"parameterNumber":2,"parameterNumberName":"U-component_of_WINDS"},"data":[0,0,0,0,0,0,0,0,0,0,0,0,0,0,0,0,0,0,0,0,0,0,0,0,0,0,0,0,0,0,0,0,0,0,0,0,0,0,0,0,0,0,0,0,0,0,0,0,0,0,0,0,0,0,0,0,0,0,5.8312,5.8314,0,5.8483,5.8485,5.8487,5.8408,5.8404,5.84,5.8396,5.8573,5.8581,5.859,0,0,0,0,0,0,0,0,0,0,0,0,0,5.7919,5.7926,5.8312,5.8314,5.8316,5.8482,5.8485,5.8487,5.8409,5.8404,5.8399,5.8394,5.857,5.858,5.8591,0,0,0,0,0,0,0,0,0,0,0,0,0,5.809,5.7929,5.8312,5.8297,5.8298,5.8482,5.8485,5.8488,5.841,5.8404,5.8397,5.8391,5.8566,5.8579,5.8592,5.8801,0,0,5.8632,5.8637,0,0,0,0,0,0,0,0,5.808,5.8104,5.8297,5.8299,5.8299,5.8418,5.8411,5.8593,5.8412,5.8368,5.8396,5.8388,5.8526,5.8542,5.8589,5.8809,5.8817,5.8633,5.8641,5.8646,5.865,0,0,0,0,0,0,0,5.8068,5.8096,5.8379,5.83,5.8301,5.8282,5.83,5.8445,5.8481,5.8371,5.8366,5.8387,5.8526,5.8576,5.8592,5.8819,5.8633,5.8644,5.8652,5.8657,5.9217,5.9224,0,0,0,0,0,0,5.8057,5.8087,5.8374,5.8385,5.8172,5.8295,5.8314,5.8386,5.8479,5.8487,5.8392,5.8383,5.8557,5.8577,5.8598,5.8846,5.8646,5.8659,5.8666,5.921,5.9219,5.9226,0,0,0,0,0,0,5.8048,5.8083,5.8367,5.8234,5.8269,5.8308,5.839,5.8393,5.8443,5.8495,5.8501,5.8437,5.8553,5.858,5.875,5.8851,5.8664,5.8676,5.9202,5.9213,5.9223,5.9346,0,0,0,0,0,0,5.8037,5.808,5.816,5.8237,5.8277,5.8517,5.8396,5.8401,5.8466,5.8455,5.8539,5.8547,5.855,5.8731,5.8763,5.8866,5.8687,5.9193,5.9207,5.9219,5.9333,5.936,5.9382,0,0,0,0,0,5.8024,5.8189,5.8165,5.82,5.8377,5.8523,5.8545,5.8545,5.8474,5.8554,5.8587,5.8544,5.8836,5.8749,5.8785,5.8893,5.9186,5.9203,5.9218,5.9322,5.9355,5.9382,0,0,0,0,0,0,5.8125,5.8199,5.8173,5.8368,5.8439,5.8509,5.861,5.858,5.8674,5.866,5.8656,5.8676,5.8852,5.889,5.8792,5.9099,5.9,5.9024,5.9067,5.9098,5.9122,5.9109,5.8697,0,0,0,0,0,5.8169,5.8281,5.8341,5.8507,5.8544,5.8572,5.8635,5.8628,5.8703,5.8733,5.8778,5.8853,5.896,5.9032,5.9134,5.9339,5.9355,5.9431,5.9455,5.9475,5.9495,5.9604,5.9637,5.9278,5.9278,5.9278,0,0,5.8263,5.8318,5.8389,5.8529,5.8583,5.8699,5.8598,5.8725,5.881,5.8752,5.8915,5.8952,5.9034,5.9222,5.9307,5.9259,5.9598,5.9495,5.9511,5.952,5.9623,5.9657,5.9687,5.9289,5.9287,5.9285,0,0,5.8493,5.8547,5.869,5.8746,5.883,5.8847,5.8881,5.8956,5.8977,5.914,5.9099,5.9201,5.9388,5.9447,5.9502,5.9753,5.9715,5.9787,5.9914,6.002,6.0048,6.0073,6.016,6.0192,5.9807,5.9807,5.9807,0,5.8599,5.8771,5.8767,5.8897,5.8959,5.8911,5.9056,5.9111,5.9225,5.9268,5.9213,5.9445,5.9497,5.9697,5.9758,5.9805,5.9843,5.9776,6.0045,6.007,6.0093,6.0176,6.0209,5.9815,5.9814,5.9813,5.9813,0,5.8896,5.9016,5.9122,5.9231,5.9305,5.9442,5.9459,5.9534,5.9521,5.9544,5.971,5.9771,5.9884,5.9931,5.9921,6.0129,6.0097,6.0044,5.9944,6.0135,6.0213,6.0245,5.9826,5.9824,5.9821,5.9819,0,0,5.9194,5.9298,5.9337,5.9384,5.9473,5.9565,5.97,5.9809,5.9873,5.9953,6.0064,6.0223,6.0173,6.0236,6.0231,6.0325,6.0516,6.026,6.0261,6.0303,6.0747,6.0785,6.0822,6.0493,6.0499,6.0504,6.0739,0,5.9428,5.9662,5.9662,5.9877,5.9987,5.9943,6.006,6.0126,6.0151,6.0248,6.0275,6.0386,6.0314,6.0351,6.0441,6.0474,6.0605,6.0457,6.0595,6.06,6.0573,6.0863,6.0903,6.1123,6.077,6.0775,6.0779,0,5.9732,5.982,6.0046,6.0116,6.0162,6.0267,6.0366,6.046,6.0534,6.0545,6.0614,6.0595,6.0731,6.0629,6.0815,6.0714,6.0771,6.0795,6.0804,6.0815,6.0699,6.0879,6.1193,6.1225,6.0827,6.0823,6.082,0,5.9923,6.0098,6.0255,6.0298,6.0385,6.0459,6.0499,6.0567,6.0632,6.0719,6.0761,6.0863,6.0919,6.0998,6.1007,6.0932,6.1194,6.1093,6.1206,6.1205,6.1261,6.1257,6.1586,6.1302,6.1302,6.1301,6.13,0,6.0183,6.0322,6.0342,6.0439,6.0593,6.0592,6.0745,6.0779,6.0839,6.0941,6.091,6.1007,6.1013,6.1112,6.112,6.1272,6.1298,6.131,6.131,6.1312,6.131,6.1347,6.1331,6.131,6.1308,6.1306,6.1305,0,6.0421,6.0441,6.0608,6.0676,6.0697,6.0807,6.0865,6.0957,6.0978,6.1108,6.1138,6.1172,6.1286,6.1303,6.1438,6.1443,6.1624,6.161,6.1599,6.1596,6.1706,6.1695,6.2069,6.2117,6.1804,6.1807,6.181,0,6.0585,6.0691,6.0769,6.0835,6.0878,6.0985,6.105,6.1053,6.1123,6.1214,6.1295,6.1406,6.1495,6.168,6.1717,6.1819,6.1805,6.1929,6.182,6.1818,6.1804,6.1796,6.1806,6.1949,6.1953,6.1956,6.1958,0,6.0872,6.0876,6.0971,6.107,6.1149,6.1227,6.1301,6.1357,6.1369,6.1449,6.1565,6.1634,6.177,6.188,6.1982,6.2022,6.1992,6.1992,6.2023,6.2024,6.2012,6.2017,6.1653,6.1983,6.1981,6.1979,6.1977,6.1976,6.1076,6.1167,6.1236,6.1343,6.1399,6.1468,6.1556,6.1588,6.1685,6.1795,6.1792,6.1919,6.1989,6.2121,6.2169,6.2268,6.2228,6.2273,6.2284,6.2295,6.2304,6.1999,6.2287,6.2286,6.2286,6.2285,6.2285,0,6.1359,6.1401,6.1499,6.1602,6.1686,6.1651,6.173,6.1802,6.1914,6.1982,6.2069,6.2202,6.2308,6.2353,6.2457,6.2528,6.2516,6.2555,6.2548,6.2557,6.2336,6.2297,6.2562,6.2562,6.2562,6.2562,6.2562,6.2561,6.1516,6.1667,6.1679,6.1857,6.1898,6.2022,6.207,6.2133,6.2186,6.2335,6.2423,6.2451,6.2509,6.2617,6.2712,6.2723,6.2761,6.2805,6.281,6.2601,6.2573,6.2547,6.251,6.2815,6.2815,6.3022,6.3024,6.3025]},{"header":{"parameterUnit":"m.s-1","parameterCategory":1,"la1":30.2991,"la2":30.254,"lo1":-89.0895,"lo2":-89.0444,"dy":0.0017,"dx":0.0017,"nx":28,"ny":28,"refTime":"2023-07-21T21:00:00:Z","depth":0,"parameterNumber":3,"parameterNumberName":"V-component_of_WINDS"},"data":[0,0,0,0,0,0,0,0,0,0,0,0,0,0,0,0,0,0,0,0,0,0,0,0,0,0,0,0,0,0,0,0,0,0,0,0,0,0,0,0,0,0,0,0,0,0,0,0,0,0,0,0,0,0,0,0,0,0,1.6743,1.6745,0,1.6866,1.6867,1.6869,1.6883,1.6882,1.6881,1.688,1.7007,1.7012,1.7016,0,0,0,0,0,0,0,0,0,0,0,0,0,1.6522,1.6526,1.6743,1.6745,1.6746,1.6866,1.6867,1.6869,1.6884,1.6882,1.6881,1.6879,1.7006,1.7011,1.7017,0,0,0,0,0,0,0,0,0,0,0,0,0,1.6629,1.6528,1.6743,1.6768,1.6771,1.6865,1.6867,1.6869,1.6884,1.6882,1.688,1.6878,1.7004,1.7011,1.7017,1.7096,0,0,1.7038,1.7041,0,0,0,0,0,0,0,0,1.6623,1.6637,1.6763,1.6766,1.677,1.6857,1.6836,1.6945,1.6884,1.6841,1.688,1.6878,1.6959,1.6969,1.6997,1.7102,1.7107,1.7039,1.7043,1.7046,1.7048,0,0,0,0,0,0,0,1.6616,1.6632,1.6792,1.6764,1.6769,1.6773,1.6786,1.6857,1.6909,1.6845,1.6846,1.686,1.6961,1.699,1.7,1.7109,1.7039,1.7045,1.7049,1.7052,1.7284,1.7286,0,0,0,0,0,0,1.6603,1.6626,1.6788,1.6795,1.6691,1.6779,1.6793,1.6831,1.6908,1.6918,1.6862,1.6861,1.6979,1.6992,1.7004,1.7101,1.7046,1.7052,1.7056,1.7282,1.7284,1.7286,0,0,0,0,0,0,1.6599,1.6618,1.6783,1.6711,1.6732,1.6784,1.6827,1.6835,1.6864,1.6921,1.693,1.6882,1.6978,1.6995,1.7073,1.7105,1.7055,1.7061,1.7279,1.7282,1.7285,1.7294,0,0,0,0,0,0,1.6592,1.6616,1.6646,1.6712,1.6736,1.6849,1.6829,1.6838,1.6875,1.6875,1.6942,1.6952,1.6978,1.7062,1.7079,1.7114,1.7067,1.7276,1.7281,1.7284,1.7291,1.7297,1.7302,0,0,0,0,0,1.6584,1.6644,1.6648,1.6667,1.6775,1.6851,1.6865,1.6893,1.6878,1.6909,1.6945,1.695,1.7099,1.707,1.7089,1.7126,1.7275,1.7279,1.7284,1.7289,1.7296,1.7302,0,0,0,0,0,0,1.6583,1.6653,1.6658,1.6741,1.6789,1.6853,1.6893,1.69,1.6955,1.6953,1.6986,1.7001,1.7078,1.711,1.7077,1.7206,1.7185,1.7194,1.7182,1.7189,1.7195,1.7186,1.7072,0,0,0,0,0,1.6592,1.6647,1.6706,1.6774,1.6798,1.6841,1.6875,1.6893,1.6945,1.6966,1.7008,1.7059,1.7117,1.7155,1.7212,1.7295,1.731,1.733,1.7336,1.734,1.7347,1.7393,1.7403,1.7302,1.7302,1.7302,0,0,1.6611,1.6657,1.669,1.6774,1.6814,1.6871,1.6858,1.6919,1.6962,1.6975,1.7051,1.7084,1.7143,1.7224,1.7261,1.7253,1.7378,1.7346,1.7349,1.7354,1.7399,1.7409,1.7417,1.7305,1.7304,1.7304,0,0,1.6676,1.6716,1.6777,1.6816,1.6876,1.6905,1.6919,1.6981,1.7003,1.708,1.7091,1.7142,1.7241,1.7283,1.7317,1.7395,1.7402,1.7413,1.7442,1.7487,1.7495,1.7502,1.753,1.7539,1.742,1.742,1.742,0,1.6694,1.6779,1.6807,1.6867,1.6904,1.6917,1.6978,1.7016,1.7092,1.7117,1.7106,1.723,1.7271,1.7361,1.738,1.7407,1.7425,1.7406,1.7491,1.7499,1.7506,1.7533,1.7543,1.7421,1.7421,1.7421,1.7421,0,1.6797,1.6856,1.6898,1.697,1.7011,1.7071,1.7108,1.7146,1.716,1.7189,1.7266,1.7315,1.7382,1.7404,1.7418,1.7496,1.7489,1.7484,1.7464,1.7516,1.7542,1.7552,1.7422,1.7422,1.7422,1.7421,0,0,1.6866,1.6951,1.6966,1.6998,1.7065,1.7111,1.7172,1.7236,1.7268,1.7319,1.7371,1.7454,1.7449,1.7488,1.7507,1.7546,1.7604,1.7536,1.7538,1.7547,1.7693,1.7696,1.7708,1.7608,1.761,1.7612,1.7688,0,1.6939,1.7047,1.7073,1.7166,1.722,1.7233,1.7286,1.7332,1.7361,1.7412,1.7443,1.7502,1.7491,1.7514,1.7553,1.7589,1.7634,1.7584,1.7657,1.7659,1.7642,1.7721,1.7726,1.7795,1.7698,1.77,1.7701,0,1.7039,1.7091,1.7189,1.7247,1.7271,1.7318,1.7378,1.7426,1.7479,1.7497,1.7539,1.7553,1.7617,1.7593,1.7681,1.7646,1.7678,1.7699,1.7703,1.7711,1.7684,1.7732,1.7818,1.7828,1.7717,1.7716,1.7715,0,1.7079,1.7174,1.7245,1.7272,1.7341,1.7374,1.7405,1.7455,1.7492,1.7544,1.7568,1.7628,1.7661,1.7706,1.7737,1.7716,1.7822,1.7801,1.7839,1.7838,1.7861,1.786,1.7953,1.7881,1.7881,1.788,1.788,0,1.7158,1.7217,1.7263,1.7307,1.7373,1.7402,1.7468,1.7498,1.7543,1.7593,1.7608,1.7654,1.7691,1.7742,1.7766,1.7835,1.785,1.7866,1.7872,1.7865,1.7863,1.7887,1.7883,1.7883,1.7883,1.7882,1.7882,0,1.7215,1.7248,1.7326,1.7385,1.7401,1.7447,1.7498,1.754,1.7568,1.7631,1.7648,1.7692,1.7753,1.7787,1.7865,1.788,1.7957,1.7961,1.7939,1.7942,1.7978,1.7974,1.8091,1.8108,1.8023,1.8024,1.8025,0,1.7263,1.7309,1.7372,1.7406,1.7437,1.7491,1.7528,1.7558,1.7596,1.7658,1.7693,1.7755,1.7806,1.7903,1.7943,1.8001,1.8006,1.8043,1.8015,1.8007,1.8007,1.8004,1.8008,1.8048,1.8049,1.8049,1.805,0,1.7345,1.7359,1.7411,1.7469,1.7512,1.7559,1.7606,1.7633,1.7671,1.7712,1.7775,1.7814,1.7892,1.7953,1.8014,1.8046,1.8055,1.8058,1.807,1.8064,1.805,1.8058,1.7953,1.8056,1.8055,1.8055,1.8054,1.8054,1.7399,1.744,1.7491,1.7548,1.7586,1.7629,1.7672,1.7705,1.7757,1.7822,1.7836,1.7902,1.7952,1.8036,1.8069,1.8121,1.8114,1.8131,1.8136,1.814,1.8141,1.8041,1.8132,1.8132,1.8132,1.8132,1.8132,0,1.7482,1.7515,1.7567,1.7632,1.7677,1.7679,1.7731,1.7768,1.7826,1.7872,1.7921,1.7992,1.8051,1.8094,1.8154,1.8187,1.8192,1.8202,1.82,1.8207,1.8144,1.8127,1.8197,1.8197,1.8197,1.8197,1.8197,1.8197,1.7531,1.76,1.7619,1.7707,1.774,1.7803,1.7832,1.7872,1.7909,1.7987,1.8035,1.8063,1.8108,1.8171,1.8225,1.8236,1.8258,1.8267,1.8279,1.8219,1.8212,1.8205,1.819,1.8271,1.8272,1.8338,1.8339,1.8339]}]]